Location: Roc des P�zouls
(43.9667°N, 3.5500°E)
Time: 12:47:39
(UTC+00:00)

PSLV R/B - Pass Details

Date: 14 November 2019
Orbit: 505 x 579 km, 97.8° (Epoch: 10 December)

Event Time Altitude Azimuth Distance (km) Brightness Sun altitude
Rises 05:01:15 0° 10° (N) 2,659 7.3 -17.6°
Reaches altitude 10° 05:03:21 10° 7° (N) 1,777 6.4 -17.2°
Maximum altitude 05:07:08 67° 286° (WNW) 585 3.6 -16.5°
Drops below altitude 10° 05:11:01 10° 203° (SSW) 1,805 6.3 -15.9°
Sets 05:13:09 0° 201° (SSW) 2,706 7.2 -15.5°
